Preview of NWS' New Version of Forecast
This preview is not operational and should not be used for support decisions.

Regional Weather Roundup (RWR)

Issued by Gray - Portland, ME (GYX)

                            
418 
ASUS41 KGYX 211005
RWRGYX
WEATHER ROUNDUP FOR MAINE AND NEW HAMPSHIRE
NATIONAL WEATHER SERVICE GRAY ME
600 AM EDT SAT APR 21 2018

MEZ002-005-006-010-012-015-018-020-021-024-026-027-029-211100-
MAINE
  
CITY           SKY/WX    TMP DP  RH WIND       PRES   REMARKS
PORTLAND       FAIR      35  26  69 W7        30.23R                  
SANFORD        FAIR      34  27  75 W5        30.25R                  
BAR HARBOR     FAIR      35  30  82 W5        30.17R                  
WISCASSET      FAIR      29  27  92 CALM      30.23R                  
ROCKLAND       FAIR      33  27  78 W6        30.20R                  
FRYEBURG       MOCLDY    28  26  92 CALM      30.23R                  
LEWISTONAUBURN MOCLDY    35  26  69 CALM      30.23R                  
AUGUSTA        FAIR      34  26  72 NW6       30.20R                  
WATERVILLE     FAIR      35  27  72 NW7       30.17R                  
BANGOR         FAIR      35  29  78 W7        30.17R                  
GREENVILLE       N/A     31  27  85 NW13      30.11R                  
MILLINOCKET    FAIR      34  27  75 VRB5      30.15R                  
HOULTON        FAIR      32  28  85 NW6       30.09R                  
PRESQUE ISLE   FAIR      31  27  85 NW7       30.11R                  
FRENCHVILLE    FAIR      31  21  66 NW13      30.08R                  
CARIBOU        FAIR      31  24  75 NW7       30.09R                  
$$

NHZ002-005-008-009-011-012-014-211100-
NEW HAMPSHIRE
  
CITY           SKY/WX    TMP DP  RH WIND       PRES   REMARKS
PORTSMOUTH     PTCLDY    37  26  66 W6        30.24R                  
ROCHESTER      FAIR      36  27  69 W3        30.24R                  
NASHUA         FAIR      33  27  78 NW3       30.29R                  
MANCHESTER     FAIR      34  25  69 CALM      30.26S                  
CONCORD        FAIR      30  24  78 CALM      30.27R                  
LACONIA        FAIR      27  26  96 NW3       30.26R                  
PLYMOUTH       FAIR      29  28  96 CALM      30.26R                  
BERLIN         CLOUDY    31  28  89 CALM      30.21R                  
WHITEFIELD     CLOUDY    30  27  88 CALM      30.24R                  
JAFFREY        FAIR      34  27  75 CALM      30.27R                  
KEENE          FAIR      26  25  96 CALM      30.31R                  
LEBANON        FAIR      29  24  82 S3        30.27R                  
MT WASHINGTON  BLWGSNOW  12  12 100 NW52G68     N/A  VSB 1/16WCI -14  
$$

VTZ005-007-008-211100-
VERMONT
  
CITY           SKY/WX    TMP DP  RH WIND       PRES   REMARKS
ST JOHNSBURY     N/A     29  28  96 MISG      30.25R                  
MONTPELIER     FAIR      33  24  69 W6        30.29S                  
BURLINGTON     FAIR      31  27  85 CALM      30.31R                  
$$

MAZ007-012-024-CTZ003-RIZ002-NYZ038-NYZ072-211100-
SOUTHERN NEW ENGLAND AND NY
  
CITY           SKY/WX    TMP DP  RH WIND       PRES   REMARKS
BOSTON         FAIR      39  26  59 W13       30.28R                  
WORCESTER      FAIR      31  24  75 W10       30.28R                  
NANTUCKET      FAIR      40  31  70 NW15      30.27R                  
PROVIDENCE     FAIR      39  27  62 NW9       30.31R                  
HARTFORD       FAIR      32  25  75 CALM      30.33S                  
ALBANY         FAIR      34  24  67 NW7       30.36R                  
NEW YORK CITY  FAIR      42  26  53 NW13      30.38S                  
$$

ANZ081-ANZ082-ANZ150-NHZ014-MEZ023>029-211100-
COASTAL MARINE OBSERVATIONS
  
STATION/POSITION TIME  TEMP    WIND        PRES    WAVE
                       AIR SEA DIR/SP/G            HT/PER
                 (UTC) (F)     (DEG/KT/KT) (MB)    (FT/S)
MOUNT DESERT ROC 1000   39     300/ 17/ 18 1021.4R
MATINICUS ROCK   0900   40     300/ 16/ 18 1021.1R
ISLE OF SHOALS   0900   39     290/ 15/ 17 1023.7R
JEFFREYS LEDGE   0936      41                N/A     3/ 4
CASHES LEDGE BUO 0950   40 40              1022.4R   3/ 5
$$

.............KEY..............
   WCI - WIND CHILL
   TC  - TEMPERATURE IN CELSIUS
   VSB - VISIBILITY IN MILES
   HX  - HEAT INDEX
   FAIR- INDICATES FEW OR NO CLOUDS BELOW 12,000 FT, WITH NO 
         SIGNIFICANT WEATHER AND/OR OBSTRUCTIONS TO VISIBILITY.